Terminal Aerodrome Forecast
Issued by NWS

Home | Current Version | Previous Version | Text Only | Print | Product List | Glossary On
Versions: 1 2 3 4 5 6 7 8 9 10 11 12 13 14 15 16 17 18 19 20 21 22 23 24
192
FTUS43 KABR 191633 AAA
TAFPIR
TAF AMD
KPIR 191633Z 1917/2012 14009KT P6SM BKN013
     FM191800 21015G23KT P6SM BKN050 BKN150
      TEMPO 1922/1924 TSRA BKN030CB OVC080
     FM200000 28017G24KT P6SM VCSH SCT090 BKN200
     FM200500 30015G23KT P6SM BKN110
     FM200700 29010KT P6SM SCT150=

USA.gov is the U.S. government's official web portal to all federal, state and local government web resources and services.